Time,TemperatureF,DewpointF,PressureIn,WindDirection,WindDirectionDegrees,WindSpeedMPH,WindSpeedGustMPH,Humidity,HourlyPrecipIn,Conditions,Clouds,dailyrainin,SoftwareType,DateUTC
2013-09-23 00:03:00,63.8,52.2,29.96,NW,325,0.0,0.0,66,0.00,,CLR,0.00,VWS V14.01,2013-09-23 07:03:00,
2013-09-23 00:08:00,63.7,52.5,29.95,NW,324,0.0,0.0,67,0.00,,CLR,0.00,VWS V14.01,2013-09-23 07:08:00,
2013-09-23 00:13:00,63.3,52.6,29.95,NW,324,0.0,0.0,68,0.00,,CLR,0.00,VWS V14.01,2013-09-23 07:13:00,
2013-09-23 00:18:00,62.7,52.8,29.96,NW,324,0.0,0.0,70,0.00,,CLR,0.00,VWS V14.01,2013-09-23 07:18:00,
2013-09-23 00:23:00,62.1,53.0,29.96,NW,325,0.0,0.0,72,0.00,,CLR,0.00,VWS V14.01,2013-09-23 07:23:00,
2013-09-23 00:28:00,61.7,53.0,29.96,NW,325,0.0,0.0,73,0.00,,CLR,0.00,VWS V14.01,2013-09-23 07:28:00,
2013-09-23 00:33:00,61.3,53.0,29.96,NNE,27,0.0,0.0,74,0.00,,CLR,0.00,VWS V14.01,2013-09-23 07:33:00,
2013-09-23 00:38:00,61.0,53.0,29.96,NE,35,0.0,0.0,75,0.00,,CLR,0.00,VWS V14.01,2013-09-23 07:38:00,
2013-09-23 00:43:00,60.9,53.3,29.95,NE,36,0.0,0.0,76,0.00,,CLR,0.00,VWS V14.01,2013-09-23 07:43:00,
2013-09-23 00:48:00,60.7,52.7,29.95,NE,35,0.0,0.0,75,0.00,,CLR,0.00,VWS V14.01,2013-09-23 07:48:00,
2013-09-23 00:53:00,60.4,52.8,29.95,NE,35,0.0,0.0,76,0.00,,CLR,0.00,VWS V14.01,2013-09-23 07:53:00,
2013-09-23 00:58:00,60.1,52.5,29.95,NE,37,0.0,0.0,76,0.00,,CLR,0.00,VWS V14.01,2013-09-23 07:58:00,
2013-09-23 01:03:00,59.7,52.5,29.95,NE,37,0.0,0.0,77,0.00,,CLR,0.00,VWS V14.01,2013-09-23 08:03:00,
2013-09-23 01:08:00,59.4,52.5,29.95,NE,37,0.0,0.0,78,0.00,,CLR,0.00,VWS V14.01,2013-09-23 08:08:00,
2013-09-23 01:13:00,59.3,53.1,29.95,NE,37,0.0,0.0,80,0.00,,CLR,0.00,VWS V14.01,2013-09-23 08:13:00,
2013-09-23 01:18:00,59.3,53.1,29.96,NE,37,0.0,0.0,80,0.00,,CLR,0.00,VWS V14.01,2013-09-23 08:18:00,
2013-09-23 01:23:00,59.3,53.1,29.96,NE,37,0.0,0.0,80,0.00,,CLR,0.00,VWS V14.01,2013-09-23 08:23:00,
2013-09-23 01:28:00,59.8,53.6,29.95,NNE,31,0.0,0.0,80,0.00,,CLR,0.00,VWS V14.01,2013-09-23 08:28:00,
2013-09-23 01:33:00,60.0,53.5,29.96,NNE,31,0.0,0.0,79,0.00,,CLR,0.00,VWS V14.01,2013-09-23 08:33:00,
2013-09-23 01:38:00,59.8,53.6,29.96,NNE,32,0.0,0.0,80,0.00,,CLR,0.00,VWS V14.01,2013-09-23 08:38:00,
2013-09-23 01:43:00,59.4,53.2,29.96,NNE,32,0.0,0.0,80,0.00,,CLR,0.00,VWS V14.01,2013-09-23 08:43:00,
2013-09-23 01:48:00,59.1,53.3,29.96,NNE,32,0.0,0.0,81,0.00,,CLR,0.00,VWS V14.01,2013-09-23 08:48:00,
2013-09-23 01:53:00,58.8,53.3,29.96,NNE,32,0.0,0.0,82,0.00,,CLR,0.00,VWS V14.01,2013-09-23 08:53:00,
2013-09-23 01:58:00,58.8,53.3,29.96,NNE,31,0.0,0.0,82,0.00,,CLR,0.00,VWS V14.01,2013-09-23 08:58:00,
2013-09-23 02:03:00,58.7,53.2,29.96,NNE,31,0.0,0.0,82,0.00,,CLR,0.00,VWS V14.01,2013-09-23 09:03:00,
2013-09-23 02:08:00,58.9,53.1,29.96,NNE,32,0.0,0.0,81,0.00,,CLR,0.00,VWS V14.01,2013-09-23 09:08:00,
2013-09-23 02:13:00,59.1,53.6,29.96,NNE,32,0.0,0.0,82,0.00,,CLR,0.00,VWS V14.01,2013-09-23 09:13:00,
2013-09-23 02:18:00,59.0,53.2,29.96,NNE,31,0.0,0.0,81,0.00,,CLR,0.00,VWS V14.01,2013-09-23 09:18:00,
2013-09-23 02:24:00,58.8,53.7,29.96,NNE,32,0.0,0.0,83,0.00,,CLR,0.00,VWS V14.01,2013-09-23 09:24:00,
2013-09-23 02:29:00,58.5,53.4,29.96,NNE,31,0.0,0.0,83,0.00,,CLR,0.00,VWS V14.01,2013-09-23 09:29:00,
2013-09-23 02:34:00,58.1,53.0,29.96,NNE,32,0.0,0.0,83,0.00,,CLR,0.00,VWS V14.01,2013-09-23 09:34:00,
2013-09-23 02:39:00,57.8,53.3,29.96,NNE,31,0.0,0.0,85,0.00,,CLR,0.00,VWS V14.01,2013-09-23 09:39:00,
2013-09-23 02:44:00,57.5,53.3,29.96,NNE,32,0.0,0.0,86,0.00,,CLR,0.00,VWS V14.01,2013-09-23 09:44:00,
2013-09-23 02:49:00,57.5,53.3,29.96,NNE,31,0.0,0.0,86,0.00,,CLR,0.00,VWS V14.01,2013-09-23 09:49:00,
2013-09-23 03:05:00,57.4,53.6,29.96,NW,320,0.0,0.0,87,0.00,,CLR,0.00,VWS V14.01,2013-09-23 10:05:00,
2013-09-23 03:10:00,57.1,53.3,29.96,NW,321,0.0,0.0,87,0.00,,CLR,0.00,VWS V14.01,2013-09-23 10:10:00,
2013-09-23 03:15:00,56.9,53.4,29.96,NW,321,0.0,0.0,88,0.00,,CLR,0.00,VWS V14.01,2013-09-23 10:15:00,
2013-09-23 03:20:00,56.9,53.1,29.96,NW,321,0.0,0.0,87,0.00,,CLR,0.00,VWS V14.01,2013-09-23 10:20:00,
2013-09-23 03:25:00,56.7,53.2,29.96,NW,321,0.0,0.0,88,0.00,,CLR,0.00,VWS V14.01,2013-09-23 10:25:00,
2013-09-23 03:34:00,56.5,53.0,29.96,NW,321,0.0,0.0,88,0.00,,CLR,0.00,VWS V14.01,2013-09-23 10:34:00,
2013-09-23 03:39:00,56.4,53.2,29.96,NW,320,0.0,0.0,89,0.00,,CLR,0.00,VWS V14.01,2013-09-23 10:39:00,
2013-09-23 03:44:00,56.2,53.0,29.96,NW,321,0.0,0.0,89,0.00,,CLR,0.00,VWS V14.01,2013-09-23 10:44:00,
2013-09-23 03:49:00,56.0,53.1,29.96,NW,321,0.0,0.0,90,0.00,,CLR,0.00,VWS V14.01,2013-09-23 10:49:00,
2013-09-23 03:54:00,56.0,53.1,29.96,NW,321,0.0,0.0,90,0.00,,CLR,0.00,VWS V14.01,2013-09-23 10:54:00,
2013-09-23 03:59:00,56.0,53.1,29.96,NW,321,0.0,0.0,90,0.00,,CLR,0.00,VWS V14.01,2013-09-23 10:59:00,
2013-09-23 04:04:00,55.8,52.9,29.96,NW,321,0.0,0.0,90,0.00,,CLR,0.00,VWS V14.01,2013-09-23 11:04:00,
2013-09-23 04:09:00,55.8,52.9,29.96,NW,321,0.0,0.0,90,0.00,,CLR,0.00,VWS V14.01,2013-09-23 11:09:00,
2013-09-23 04:14:00,55.7,52.8,29.96,NW,321,0.0,0.0,90,0.00,,CLR,0.00,VWS V14.01,2013-09-23 11:14:00,
2013-09-23 04:20:00,55.7,52.8,29.96,NW,321,0.0,0.0,90,0.00,,CLR,0.00,VWS V14.01,2013-09-23 11:20:00,
2013-09-23 04:25:00,55.5,52.6,29.96,NW,321,0.0,0.0,90,0.00,,CLR,0.00,VWS V14.01,2013-09-23 11:25:00,
2013-09-23 04:30:00,55.3,52.7,29.96,NW,321,0.0,0.0,91,0.00,,CLR,0.00,VWS V14.01,2013-09-23 11:30:00,
2013-09-23 04:35:00,55.4,53.1,29.96,NW,321,0.0,0.0,92,0.00,,CLR,0.00,VWS V14.01,2013-09-23 11:35:00,
2013-09-23 04:40:00,55.6,53.0,29.96,NW,321,0.0,0.0,91,0.00,,CLR,0.00,VWS V14.01,2013-09-23 11:40:00,
2013-09-23 04:45:00,55.6,53.0,29.96,NW,321,0.0,0.0,91,0.00,,CLR,0.00,VWS V14.01,2013-09-23 11:45:00,
2013-09-23 04:50:00,55.5,52.9,29.96,NW,321,0.0,0.0,91,0.00,,CLR,0.00,VWS V14.01,2013-09-23 11:50:00,
2013-09-23 04:55:00,55.5,52.9,29.96,NW,321,0.0,0.0,91,0.00,,CLR,0.00,VWS V14.01,2013-09-23 11:55:00,
2013-09-23 05:00:00,55.3,52.7,29.96,NW,321,0.0,0.0,91,0.00,,CLR,0.00,VWS V14.01,2013-09-23 12:00:00,
2013-09-23 05:05:00,55.1,52.5,29.96,NW,320,0.0,0.0,91,0.00,,CLR,0.00,VWS V14.01,2013-09-23 12:05:00,
2013-09-23 05:10:00,55.1,52.8,29.96,NW,321,0.0,0.0,92,0.00,,CLR,0.00,VWS V14.01,2013-09-23 12:10:00,
2013-09-23 05:15:00,55.1,52.5,29.96,NW,321,0.0,0.0,91,0.00,,CLR,0.00,VWS V14.01,2013-09-23 12:15:00,
2013-09-23 05:20:00,54.8,52.2,29.97,NW,321,0.0,0.0,91,0.00,,CLR,0.00,VWS V14.01,2013-09-23 12:20:00,
2013-09-23 05:25:00,54.9,52.6,29.97,NW,321,0.0,0.0,92,0.00,,CLR,0.00,VWS V14.01,2013-09-23 12:25:00,
2013-09-23 05:30:00,55.3,53.0,29.97,NW,321,0.0,0.0,92,0.00,,CLR,0.00,VWS V14.01,2013-09-23 12:30:00,
2013-09-23 05:35:00,55.5,52.9,29.97,NW,321,0.0,0.0,91,0.00,,CLR,0.00,VWS V14.01,2013-09-23 12:35:00,
2013-09-23 05:40:00,55.4,52.8,29.97,NW,321,0.0,0.0,91,0.00,,CLR,0.00,VWS V14.01,2013-09-23 12:40:00,
2013-09-23 05:45:00,55.5,52.9,29.97,NW,321,0.0,0.0,91,0.00,,CLR,0.00,VWS V14.01,2013-09-23 12:45:00,
2013-09-23 05:50:00,55.5,52.6,29.97,NW,321,0.0,0.0,90,0.00,,CLR,0.00,VWS V14.01,2013-09-23 12:50:00,
2013-09-23 05:55:00,55.7,53.1,29.97,NW,321,0.0,0.0,91,0.00,,CLR,0.00,VWS V14.01,2013-09-23 12:55:00,
2013-09-23 06:00:00,55.6,52.7,29.97,NW,321,0.0,0.0,90,0.00,,CLR,0.00,VWS V14.01,2013-09-23 13:00:00,
2013-09-23 06:05:00,55.4,52.8,29.97,NW,319,0.0,0.0,91,0.00,,CLR,0.00,VWS V14.01,2013-09-23 13:05:00,
2013-09-23 06:10:00,55.4,52.8,29.98,NW,319,0.0,0.0,91,0.00,,CLR,0.00,VWS V14.01,2013-09-23 13:10:00,
2013-09-23 06:15:00,55.4,52.8,29.98,WNW,300,0.0,1.0,91,0.00,,CLR,0.00,VWS V14.01,2013-09-23 13:15:00,
2013-09-23 06:20:00,55.3,52.7,29.97,WNW,300,0.0,1.0,91,0.00,,CLR,0.00,VWS V14.01,2013-09-23 13:20:00,
2013-09-23 06:26:00,55.2,52.6,29.97,WNW,297,0.0,1.0,91,0.00,,CLR,0.00,VWS V14.01,2013-09-23 13:26:00,
2013-09-23 06:31:00,55.3,52.7,29.97,WSW,252,0.0,1.0,91,0.00,,CLR,0.00,VWS V14.01,2013-09-23 13:31:00,
2013-09-23 06:36:00,55.4,52.8,29.97,WSW,252,0.0,1.0,91,0.00,,CLR,0.00,VWS V14.01,2013-09-23 13:36:00,
2013-09-23 06:41:00,55.6,52.7,29.97,WSW,252,0.0,1.0,90,0.00,,CLR,0.00,VWS V14.01,2013-09-23 13:41:00,
2013-09-23 06:46:00,55.9,53.0,29.97,WSW,252,0.0,1.0,90,0.00,,CLR,0.00,VWS V14.01,2013-09-23 13:46:00,
2013-09-23 06:51:00,56.0,52.8,29.97,WSW,252,0.0,1.0,89,0.00,,CLR,0.00,VWS V14.01,2013-09-23 13:51:00,
2013-09-23 06:56:00,55.8,52.9,29.97,WSW,252,0.0,1.0,90,0.00,,CLR,0.00,VWS V14.01,2013-09-23 13:56:00,
2013-09-23 07:01:00,55.6,52.7,29.97,WSW,251,0.0,1.0,90,0.00,,CLR,0.00,VWS V14.01,2013-09-23 14:01:00,
2013-09-23 07:06:00,55.6,53.0,29.97,WSW,252,0.0,0.0,91,0.00,,CLR,0.00,VWS V14.01,2013-09-23 14:06:00,
2013-09-23 07:11:00,55.5,52.6,29.98,WSW,252,0.0,0.0,90,0.00,,CLR,0.00,VWS V14.01,2013-09-23 14:11:00,
2013-09-23 07:16:00,55.5,52.9,29.98,WSW,253,0.0,0.0,91,0.00,,CLR,0.00,VWS V14.01,2013-09-23 14:16:00,
2013-09-23 07:21:00,55.5,52.9,29.98,WSW,252,0.0,0.0,91,0.00,,CLR,0.00,VWS V14.01,2013-09-23 14:21:00,
2013-09-23 07:26:00,55.5,52.9,29.98,WSW,252,0.0,0.0,91,0.00,,CLR,0.00,VWS V14.01,2013-09-23 14:26:00,
2013-09-23 07:31:00,55.7,53.1,29.98,WSW,252,0.0,0.0,91,0.00,,CLR,0.00,VWS V14.01,2013-09-23 14:31:00,
2013-09-23 07:36:00,56.3,54.0,29.99,WSW,252,0.0,0.0,92,0.00,,CLR,0.00,VWS V14.01,2013-09-23 14:36:00,
2013-09-23 07:41:00,57.5,54.9,29.99,WSW,252,0.0,0.0,91,0.00,,CLR,0.00,VWS V14.01,2013-09-23 14:41:00,
2013-09-23 07:46:00,58.3,54.8,29.99,WSW,254,0.0,0.0,88,0.00,,CLR,0.00,VWS V14.01,2013-09-23 14:46:00,
2013-09-23 07:51:00,58.7,54.5,29.99,NNW,328,0.0,0.0,86,0.00,,CLR,0.00,VWS V14.01,2013-09-23 14:51:00,
2013-09-23 07:56:00,59.2,54.7,29.99,North,8,0.0,1.0,85,0.00,,CLR,0.00,VWS V14.01,2013-09-23 14:56:00,
2013-09-23 08:01:00,59.6,54.8,29.99,North,8,0.0,0.0,84,0.00,,CLR,0.00,VWS V14.01,2013-09-23 15:01:00,
2013-09-23 08:06:00,60.0,55.2,29.99,North,9,1.0,1.0,84,0.00,,CLR,0.00,VWS V14.01,2013-09-23 15:06:00,
2013-09-23 08:11:00,60.6,54.8,29.99,North,9,0.0,1.0,81,0.00,,CLR,0.00,VWS V14.01,2013-09-23 15:11:00,
2013-09-23 08:16:00,61.1,55.2,29.99,North,8,0.0,1.0,81,0.00,,CLR,0.00,VWS V14.01,2013-09-23 15:16:00,
2013-09-23 08:21:00,61.8,55.2,29.99,North,8,0.0,1.0,79,0.00,,CLR,0.00,VWS V14.01,2013-09-23 15:21:00,